Regional Weather Roundup
Issued by NWS

Home | Current Version | Previous Version | Text Only | Print | Product List | Glossary Off
Versions: 1 2 3 4 5 6 7 8 9 10 11 12 13 14 15 16 17 18 19 20 21 22 23 24 25 26 27 28 29 30 31 32 33 34 35 36 37 38 39 40 41 42 43 44 45 46 47 48 49 50

000
ASUS43 KIND 291809
RWRIN

WEATHER ROUNDUP FOR INDIANA
NATIONAL WEATHER SERVICE INDIANAPOLIS IN
200 PM EDT WED JUL 29 2015

NOTE: "FAIR" INDICATES FEW OR NO CLOUDS BELOW 12,000 FEET WITH NO
SIGNIFICANT WEATHER AND/OR OBSTRUCTIONS TO VISIBILITY.

* - STATION DOES NOT REPORT WEATHER SUCH AS PRECIPITATION OR FOG.

+ - STATION NOT QUALITY CONTROLLED BY THE NATIONAL WEATHER SERVICE.
    USE DATA WITH CAUTION...ESPECIALLY DEWPOINT AND RELATIVE
    HUMIDITY OBSERVATIONS.

INZ001>003-010>013-019-020-291900-
NORTHWEST INDIANA

CITY           SKY/WX    TMP DP  RH WIND       PRES   REMARKS
GARY /AIRPORT/ PTSUNNY   84  75  74 NE7       29.99S
KNOX *+        PTSUNNY   82  72  69 NW15      29.97S
LA PORTE +     CLOUDY    80  75  83 N13       30.01R
6HR MIN TEMP:  77; 6HR MAX TEMP:  84;

MICHIGAN CITY+ CLOUDY    79  68  69 NW6       30.00S
MONTICELLO +   PTSUNNY   83  76  80 W8        29.98S
6HR MIN TEMP:  74; 6HR MAX TEMP:  83;

RENSSELAER +   CLOUDY    84  77  79 W7        29.99R
VALPARAISO     PTSUNNY   81  73  76 N8        30.00R
6HR MIN TEMP:  76; 6HR MAX TEMP:  85;


$$

LMZ046-743>745-291900-
SOUTHERN LAKE MICHIGAN

STATION/POSITION TIME  TEMP    WIND        PRES    WAVE
                       AIR SEA DIR/SP/G            HT
                 (UTC) (F)     (DEG/KT/KT) (MB)    (FT)
BURNS HARBOR     1700   76     330/  7/  9 1015.9R
MICHIGAN CITY    1700   76     280/ 10/ 12   N/A
5NW MICH CITY    1800   76 75  350/  6/  6   N/A     1

$$

INZ004-005-014>016-021>024-291900-
NORTH CENTRAL INDIANA

CITY           SKY/WX    TMP DP  RH WIND       PRES   REMARKS
ELKHART        PTSUNNY   84  72  65 NW8       29.97S
GOSHEN         CLOUDY    84  75  74 W8        29.96S
6HR MIN TEMP:  77; 6HR MAX TEMP:  84;

LOGANSPORT +   CLOUDY    84  68  58 NW6       29.99S
PERU/GRISSOM   CLOUDY    84  74  71 NW8       29.97S
6HR MIN TEMP:  76; 6HR MAX TEMP:  85;

ROCHESTER +    PTSUNNY   86  77  74 W7        29.98S HX  97
SOUTH BEND     CLOUDY    81  73  76 NW14      29.99R
6HR MIN TEMP:  78; 6HR MAX TEMP:  85;

WARSAW +       CLOUDY    84  73  70 W10       29.97S

$$

INZ006>009-017-018-025>027-291900-
NORTHEAST INDIANA

CITY           SKY/WX    TMP DP  RH WIND       PRES   REMARKS
ANGOLA *+      PTSUNNY   90  75  62 W8        29.95S HX 100
AUBURN +       PTSUNNY   88  70  55 SW6       29.95F
FORT WAYNE     PTSUNNY   87  76  69 W8        29.95F HX  97
6HR MIN TEMP:  75; 6HR MAX TEMP:  87; 6HR PCP: TRACE;

HUNTINGTON +   CLOUDY    86  75  70 W7        29.96S HX  95
6HR MIN TEMP:  75; 6HR MAX TEMP:  86;


$$

INZ028-029-035-036-043>045-051>053-291900-
WEST CENTRAL INDIANA

CITY           SKY/WX    TMP DP  RH WIND       PRES   REMARKS
CRAWFORDSVL +  CLOUDY    81  71  72 W9          N/A
6HR MIN TEMP:  73; 6HR MAX TEMP:  82; 6HR PCP:  0.01;

GREENCASTLE +  PTSUNNY   84  70  61 W6        30.01R
LAFAYETTE      CLOUDY    83  75  77 W5        29.98S
6HR MIN TEMP:  73; 6HR MAX TEMP:  84;

TERRE HAUTE    CLOUDY    87  76  69 W7        30.00R HX  97
6HR MIN TEMP:  74; 6HR MAX TEMP:  87;


$$

INZ030>032-037>040-046>048-054>057-064-065-291900-
CENTRAL INDIANA

CITY           SKY/WX    TMP DP  RH WIND       PRES   REMARKS
ANDERSON       MOSUNNY   86  68  54 NW12      29.99S
COLUMBUS       PTSUNNY   90  72  55 W5        29.98S HX  96
FISHERS *+     MOSUNNY   86  77  74 NW10      29.99R HX  97
FRANKFORT +    CLOUDY    84  75  74 W8        30.02R
6HR MIN TEMP:  78; 6HR MAX TEMP:  85;

GREENWOOD *+   SUNNY     90  70  51 NW7       29.99S HX  95
INDIANAPOLIS   MOSUNNY   90  72  55 W7        29.98R HX  97
6HR MIN TEMP:  77; 6HR MAX TEMP:  90;

-EAGLE CREEK   MOSUNNY   89  74  60 NW10      29.98S HX  98
6HR MIN TEMP:  77; 6HR MAX TEMP:  89;

KOKOMO *+      PTSUNNY   88  73  62 NW7       29.98S HX  96
6HR MIN TEMP:  75; 6HR MAX TEMP:  88;

MARION +       PTSUNNY   84  73  70 NW8       29.99R
MT COMFORT *+  MOSUNNY   90  72  55 NW8       29.99S HX  96
SHELBYVILLE    SUNNY     90  76  63 SW7       29.97S HX 101
6HR MIN TEMP:  75; 6HR MAX TEMP:  90;

ZIONSVILLE +   MOSUNNY   87  74  65 W8        30.00S
6HR MIN TEMP:  76; 6HR MAX TEMP:  87;


$$

INZ033-034-041-042-049-050-058-059-291900-
EAST CENTRAL INDIANA

CITY           SKY/WX    TMP DP  RH WIND       PRES   REMARKS
MUNCIE         PTSUNNY   87  75  67 W10       29.97S HX  96
6HR MIN TEMP:  77; 6HR MAX TEMP:  88;


$$

INZ060-061-067>069-081>083-085>088-291900-
SOUTHWEST INDIANA

CITY           SKY/WX    TMP DP  RH WIND       PRES   REMARKS
EVANSVILLE     MOSUNNY   91  76  61 CALM      29.98F HX 103
6HR MIN TEMP:  76; 6HR MAX TEMP:  91; 6HR PCP:  0.13;

HUNTINGBURG *+ MOSUNNY   90  77  66 W3        29.99S HX 102
6HR MIN TEMP:  73; 6HR MAX TEMP:  90;

WASHINGTON +   PTSUNNY   88  74  64 W3        29.98R HX  96
6HR MIN TEMP:  74; 6HR MAX TEMP:  88;


$$

INZ062-063-066-070>080-084-089>092-291900-
SOUTH CENTRAL AND SOUTHEAST INDIANA

CITY           SKY/WX    TMP DP  RH WIND       PRES   REMARKS
BLOOMINGTON    MOSUNNY   90  78  68 W7        29.99S HX 104
6HR MIN TEMP:  76; 6HR MAX TEMP:  90; 6HR PCP:  0.06;

MADISON *+     SUNNY     91  72  52 SW7       30.01S HX  98
NORTH VERNON + MOSUNNY   93  75  55 W5        29.99S HX 104
SEYMOUR +      SUNNY     91  73  55 SW6       29.98S HX 100

$$




USA.gov is the U.S. government's official web portal to all federal, state and local government web resources and services.